Weather in Olenegorsk

Russia / Sakha (Yakutia) Republic     69°48′41″N   147°29′11″E
temp.,
°C
wind,
m/s
gust,
m/s
humid.,
%
clouds,
%
prec.,
mm/h
press.,
hPa
HPBL,
m
23 january, sun
sun2323:00−35se3310097 0.0 102237
02:00−35se3410077 0.0 102147
05:00−35se349979 0.0 102155
08:00−36se3410080 0.0 102043
11:00−31sse35100100 0.0 1020102
14:00−29sse3498100 0.1 102097
17:00−28sse2398100 0.3 102076
20:00−27sse229976 0.1 102030
24 january, mon
mon2423:00−29sse2210087 0.1 102112
02:00−31sse2210080 0.1 10219
05:00−33se2210099 0.1 102110
08:00−31sse22100100 0.1 102219
11:00−31sse22100100 0.1 102121
14:00−29sse2210099 0.1 102134
17:00−29sse229997 0.1 102037
20:00−29sse339996 0.1 102038
25 january, tue
tue2523:00−29sse339993 0.1 102054
02:00−28sse339999 0.1 101968
05:00−27sse2398100 0.1 101872
08:00−26s2398100 0.1 101884
11:00−25s2399100 0.2 101848
14:00−25ssw22100100 0.1 101821
17:00−27sw22100100 0.2 101811
20:00−29ssw11100100 0.1 101910
26 january, wed
wed2623:00−32s22100100 0.1 102010
02:00−34sse22100100 0.0 102017
05:00−34se33100100 0.1 102022
08:00−34se3310099 0.0 102134
11:00−34se34100100 0.1 102153
14:00−34se36100100 0.0 102173
17:00−34se46100100 0.1 102276
20:00−35se46100100 0.0 102271
27 january, thu
thu2723:00−35se47100100 0.0 102284
02:00−35se49100100 0.0 102394
05:00−35se51010094 0.0 1022119
08:00−35sse51110084 0.0 1023135
11:00−35sse5129999 0.0 1024153
14:00−33sse6119890 0.0 1024179
17:00−34sse599714 0.0 1026133
20:00−33sse589410 0.0 1027122